Alturas, CA

7:42 PM PDT on April 22, 2018 (GMT -0700)
Alturas Municipal

Weather History for KAAT - May, 2013

Change the Weather History Date:

Sunday, May 5, 2013

  Actual Average Record
Temperature  
Mean Temperature 55 °F 49 °F  
Max Temperature 72 °F 64 °F 85 °F (1947)
Min Temperature 38 °F 33 °F 18 °F (1985)
Degree Days  
Heating Degree Days 10 16  
Month to date heating degree days 69 84  
Since 1 July heating degree days 6037 6428  
Cooling Degree Days 0 0  
Month to date cooling degree days 0 0  
Year to date cooling degree days 0 0  
Growing Degree Days 4 (Base 50)    
Moisture  
Dew Point 32 °F    
Average Humidity 49    
Maximum Humidity 77    
Minimum Humidity 20    
Precipitation  
Precipitation 0.00 in 0.05 in 0.45 in (1995)
Month to date precipitation 0.00 0.25  
Year to date precipitation 2.49 6.43  
Sea Level Pressure  
Sea Level Pressure 29.72 in    
Wind  
Wind Speed 6 mph (SSE)    
Max Wind Speed 21 mph    
Max Gust Speed 25 mph    
Visibility 10 miles    
Events      
T = Trace of Precipitation, MM = Missing Value Source: NWS Daily Summary

Daily Weather History Graph

Daily Weather History Graph

Search for Another Location

Airport or City:

Astronomy

May. 05, 2013 Rise Set
Actual Time 5:53 AM PDT 8:04 PM PDT
Civil Twilight 5:23 AM PDT 8:35 PM PDT
Nautical Twilight 4:45 AM PDT 9:13 PM PDT
Astronomical Twilight 4:04 AM PDT 9:54 PM PDT
Moon 3:30 AM PDT (5/5) 4:06 PM PDT (5/5)
Length of Visible Light 15h 12m
Length of Day
14h 10m
Waning Crescent, 17% of the Moon is Illuminated
May 5
Waning Crescent
May 9
New
May 17
First Quarter
May 24
Full
May 31
Last Quarter

Hourly Weather History & Observations

Time (PDT) Temp. Windchill Dew Point Humidity Pressure Visibility Wind Dir Wind Speed Gust Speed Precip Events Conditions
12:55 AM 53.1 °F - 30.0 °F 41% 29.75 in 10.0 mi ENE 6.9 mph - N/A   Partly Cloudy
1:55 AM 51.1 °F - 30.0 °F 44% 29.73 in 10.0 mi Calm Calm - N/A   Clear
2:55 AM 46.0 °F 42.5 °F 30.0 °F 54% 29.73 in 10.0 mi South 6.9 mph - N/A   Clear
3:55 AM 46.9 °F - 30.9 °F 54% 29.71 in 10.0 mi East 8.1 mph - N/A   Clear
4:55 AM 44.1 °F 42.5 °F 30.0 °F 58% 29.71 in 10.0 mi NE 3.5 mph - N/A   Clear
5:55 AM 37.9 °F 35.5 °F 28.9 °F 70% 29.72 in 10.0 mi NW 3.5 mph - N/A   Clear
6:55 AM 45.0 °F 41.8 °F 32.0 °F 60% 29.73 in 10.0 mi SSW 5.8 mph - N/A   Clear
7:55 AM 55.9 °F - 32.0 °F 40% 29.72 in 10.0 mi Calm Calm - N/A   Partly Cloudy
8:55 AM 57.9 °F - 34.0 °F 41% 29.73 in 10.0 mi SE 5.8 mph - N/A   Clear
9:55 AM 62.1 °F - 30.9 °F 31% 29.74 in 10.0 mi Variable 3.5 mph - N/A   Clear
11:55 AM 64.0 °F - 32.0 °F 30% 29.73 in 10.0 mi ENE 6.9 mph - N/A   Partly Cloudy
12:55 PM 66.9 °F - 30.0 °F 25% 29.70 in 10.0 mi ESE 9.2 mph 18.4 mph N/A   Scattered Clouds
1:55 PM 70.0 °F - 28.0 °F 21% 29.67 in 10.0 mi SE 10.4 mph 23.0 mph N/A   Clear
2:55 PM 69.1 °F - 26.1 °F 20% 29.68 in 10.0 mi SSE 13.8 mph - N/A   Clear
3:55 PM 69.1 °F - 26.1 °F 20% 29.67 in 10.0 mi SE 9.2 mph - N/A   Clear
4:55 PM 69.1 °F - 26.1 °F 20% 29.67 in 10.0 mi WSW 9.2 mph - N/A   Scattered Clouds
5:17 PM 64.4 °F - 33.8 °F 32% 29.76 in 10.0 mi West 19.6 mph - N/A   Scattered Clouds
5:55 PM 64.0 °F - 35.1 °F 34% 29.71 in 10.0 mi West 16.1 mph 21.9 mph N/A   Clear
6:55 PM 63.0 °F - 35.1 °F 35% 29.71 in 10.0 mi West 11.5 mph - N/A   Mostly Cloudy
7:55 PM 59.0 °F - 35.1 °F 41% 29.71 in 10.0 mi WNW 5.8 mph - N/A   Partly Cloudy
8:55 PM 57.0 °F - 35.1 °F 44% 29.73 in 10.0 mi Calm Calm - N/A   Overcast
9:55 PM 54.0 °F - 36.0 °F 51% 29.78 in 10.0 mi SSE 9.2 mph - N/A   Overcast
10:55 PM 51.1 °F - 41.0 °F 68% 29.79 in 10.0 mi Calm Calm - N/A   Mostly Cloudy
11:55 PM 48.0 °F - 41.0 °F 77% 29.80 in 10.0 mi Calm Calm - N/A   Scattered Clouds